Preview of NWS' New Version of Forecast
This preview is not operational and should not be used for support decisions.

Regional Weather Roundup (RWR)

Issued by National Weather Service (NWS)

                            
000
ASUS45 KCYS 250110
RWRWY 

WYOMING REGIONAL WEATHER ROUNDUP
NATIONAL WEATHER SERVICE CHEYENNE WY
700 PM MDT MON JUN 24 2019

NOTE:  "FAIR" INDICATES FEW OR NO CLOUDS BELOW 12,000 FEET
WITH NO SIGNIFICANT WEATHER AND/OR OBSTRUCTIONS TO VISIBILITY.

WYZ001-250200-
YELLOWSTONE NATIONAL PARK
  
CITY           SKY/WX    TMP DP  RH WIND       PRES   REMARKS
LK YELLOWSTONE   N/A     46  39  76 W10       30.08R                  
W YELLOWSTONE  NOT AVBL                                               

$$
WYZ002>013-054>058-071-098>099-250200-
NORTHERN WYOMING
  
CITY           SKY/WX    TMP DP  RH WIND       PRES   REMARKS
JACKSON        FAIR      65  30  27 SW18G25   29.98F                  
CODY           PTSUNNY   61  40  45 N14       29.92R                  
GREYBULL       FAIR      74  42  31 N13G21    29.82R                  
WORLAND        FAIR      74  38  27 N8        29.81S                  
SHERIDAN       FAIR      68  43  40 N10       29.86R                  
BUFFALO        FAIR      64  44  48 N12       29.90R                  
GILLETTE       FAIR      67  45  45 N10       29.86R                  
HULETT         FAIR      68  43  40 NW7       29.86                   
NEWCASTLE      FAIR      70  43  37 N12G18    29.86                   

$$
WYZ014>020-022>026-101>103-250200-
CENTRAL WYOMING
  
CITY           SKY/WX    TMP DP  RH WIND       PRES   REMARKS
BIG PINEY      FAIR      62  31  31 W14       30.04R                  
PINEDALE       FAIR      63  28  27 MISG      30.05                   
DUBOIS         FAIR      61  23  23 NW18G25   29.99                   
LANDER         FAIR      73  27  18 W13       29.89R                  
RIVERTON       FAIR      73  26  17 W23       29.89R                  
CASPER         FAIR      73  28  18 NW21G26   29.86R                  
DOUGLAS        FAIR      69  42  37 NE14      29.86R                  

$$
WYZ021-027>030-104>119-250200-
SOUTHERN WYOMING
  
CITY           SKY/WX    TMP DP  RH WIND       PRES   REMARKS
EVANSTON       FAIR      66  31  27 W17G25    30.07S                  
KEMMERER       FAIR      64  28  25 W16G25    30.07                   
ROCK SPRINGS   FAIR      68  25  19 W30G37    30.01R                  
DIXON          FAIR      67  33  28 S17G36    30.06R                  
RAWLINS        FAIR      70  28  21 W21G31    29.99S                  
SARATOGA       FAIR      63  32  31 W20G30    30.04F                  
LARAMIE        FAIR      60  34  37 SW17G35   30.04R                  
CHEYENNE         N/A    N/A N/A N/A MISG        N/A                   
TORRINGTON     FAIR      79  33  19 NW16G22   29.80S                  
PINE BLUFFS    MOCLDY    70  39  32 NW7       29.91S                  

$$